Change the Weather History Date:

Monday, May 14, 2012

  Actual Average Record
Temperature  
Mean Temperature 66 °F -  
Max Temperature 77 °F 63 °F 87 °F (1973)
Min Temperature 55 °F 46 °F 32 °F (1999)
Cooling Degree Days 1    
Growing Degree Days 16 (Base 50)    
Moisture  
Dew Point 43 °F    
Average Humidity 43    
Maximum Humidity 64    
Minimum Humidity 22    
Precipitation  
Precipitation 0.00 in - - ()
Sea Level Pressure  
Sea Level Pressure 30.03 in    
Wind  
Wind Speed 3 mph (NW)    
Max Wind Speed 10 mph    
Max Gust Speed 17 mph    
Visibility 10 miles    
Events      
Averages and records for this station are not official NWS values.
T = Trace of Precipitation, MM = Missing Value Source: NWS Daily Summary

Daily Weather History Graph

Daily Weather History Graph

Search for Another Location

Airport or City:

Trip Planner

Search our weather history database for the weather conditions in past years. The results will help you decide how hot, cold, wet, or windy it might be!

Date:

Astronomy

May. 14, 2012 Rise Set
Actual Time 5:32 AM PDT 8:39 PM PDT
Civil Twilight 4:56 AM PDT 9:15 PM PDT
Nautical Twilight 4:08 AM PDT 10:03 PM PDT
Astronomical Twilight 3:10 AM PDT 11:02 PM PDT
Moon 2:33 AM PDT (5/14) 2:43 PM PDT (5/14)
Length of Visible Light 16h 19m
Length of Day
15h 06m
Waning Crescent, 31% of the Moon is Illuminated
May 14
Waning Crescent
May 20
New
May 28
First Quarter
Jun 4
Full
Jun 11
Last Quarter

Hourly Weather History & Observations

Time (PDT) Temp. Dew Point Humidity Pressure Visibility Wind Dir Wind Speed Gust Speed Precip Events Conditions
12:53 AM 61.0 °F 39.9 °F 46% 30.06 in 10.0 mi North 3.5 mph - N/A   Clear
1:53 AM 59.0 °F 41.0 °F 51% 30.06 in 10.0 mi Calm Calm - N/A   Clear
2:53 AM 57.9 °F 41.0 °F 53% 30.06 in 10.0 mi Calm Calm - N/A   Clear
3:53 AM 57.9 °F 39.9 °F 51% 30.06 in 10.0 mi Calm Calm - N/A   Clear
4:53 AM 57.0 °F 39.9 °F 53% 30.06 in 10.0 mi Calm Calm - N/A   Clear
5:53 AM 55.0 °F 43.0 °F 64% 30.06 in 10.0 mi Calm Calm - N/A   Clear
6:53 AM 57.9 °F 43.0 °F 58% 30.07 in 10.0 mi Calm Calm - N/A   Clear
7:53 AM 62.1 °F 44.1 °F 52% 30.07 in 10.0 mi Calm Calm - N/A   Clear
8:53 AM 64.0 °F 44.1 °F 48% 30.06 in 10.0 mi Calm Calm - N/A   Clear
9:53 AM 66.9 °F 44.1 °F 44% 30.05 in 10.0 mi NNW 3.5 mph - N/A   Clear
10:53 AM 69.1 °F 44.1 °F 40% 30.04 in 10.0 mi WNW 8.1 mph - N/A   Clear
11:53 AM 71.1 °F 46.9 °F 42% 30.04 in 10.0 mi NW 8.1 mph - N/A   Clear
12:53 PM 72.0 °F 45.0 °F 38% 30.02 in 10.0 mi WNW 8.1 mph - N/A   Clear
1:53 PM 73.0 °F 46.9 °F 39% 30.01 in 10.0 mi WNW 6.9 mph - N/A   Clear
2:53 PM 73.9 °F 46.9 °F 38% 30.00 in 10.0 mi WNW 10.4 mph - N/A   Partly Cloudy
3:53 PM 75.0 °F 46.9 °F 37% 29.99 in 10.0 mi WNW 9.2 mph - N/A   Partly Cloudy
4:53 PM 75.9 °F 45.0 °F 33% 29.99 in 10.0 mi WNW 8.1 mph - N/A   Partly Cloudy
5:53 PM 77.0 °F 35.1 °F 22% 29.98 in 10.0 mi NW 9.2 mph 17.3 mph N/A   Partly Cloudy
6:53 PM 75.0 °F 39.0 °F 27% 29.97 in 10.0 mi WNW 8.1 mph - N/A   Partly Cloudy
7:53 PM 73.0 °F 39.0 °F 29% 29.98 in 10.0 mi NW 4.6 mph - N/A   Partly Cloudy
8:53 PM 70.0 °F 39.9 °F 33% 29.99 in 10.0 mi Calm Calm - N/A   Clear
9:53 PM 68.0 °F 42.1 °F 39% 30.01 in 10.0 mi Calm Calm - N/A   Clear
10:53 PM 64.9 °F 43.0 °F 45% 30.02 in 10.0 mi Calm Calm - N/A   Clear
11:53 PM 62.1 °F 43.0 °F 50% 30.04 in 10.0 mi Calm Calm - N/A   Clear